Home > Weather > Marseille > Past weeks

Flag for France Weather for the Past 2 Weeks in Marseille, France

Now
45 °F

Clear.


Feels Like: 40 °F
Forecast: 48 / 59 °F
Wind: 9 mph from Northwest

Location: Marseille / Marignane

Current Time: Feb 12, 2016 at 2:21:21 AM

Latest Report: Feb 12, 2016 at 1:30 AM


Visibility: 10 mi

Pressure: 29.80 "Hg

Humidity: 81%

Dew point: 39 °F

Location of MarseilleLocation

Historic Weather in Marseille — Graph

°F

Marseille Temperature Yesterday

Maximum temperature yesterday: 50 °F (at 1:30 PM)
Minimum temperature yesterday: 32 °F (at 7:30 AM)
Average temperature yesterday: 44 °F

High & Low Weather Summary for the Past Weeks

 TemperatureHumidityPressure
High66 °F (Feb 1, 1:00 PM)100% (Jan 29, 12:30 AM)30.48 "Hg (Jan 29, 12:30 AM)
Low32 °F (Feb 11, 7:30 AM)41% (Feb 4, 2:00 PM)29.56 "Hg (Feb 9, 4:00 PM)
Average52 °F75%30.15 "Hg
* Reported Jan 28 1:00 AM — Feb 12 1:00 AM, Marseille, Weather by CustomWeather, © 2016

Note: Actual official high and low records may vary slightly from our data, if they occured in-between our weather recording intervals... More about our weather records

Advertising

Marseille Weather History for the Previous 24 Hours

 ConditionsComfort  
Time TempWeatherWind HumidityBarometerVisibility
1:00 AM
Fri, Feb 12
45 °FClear.7 mph81%29.80 "Hg10 mi
12:30 AM45 °FClear.5 mph76%29.80 "Hg10 mi
12:00 AM46 °FPassing clouds.8 mph76%29.80 "HgN/A
11:00 PM
Thu, Feb 11
48 °FPassing clouds.15 mph76%29.80 "HgN/A
10:30 PM48 °FPassing clouds.12 mph82%29.80 "HgN/A
10:00 PM48 °FPassing clouds.14 mph82%29.80 "HgN/A
9:30 PM50 °FPartly cloudy.12 mph82%29.80 "HgN/A
9:00 PM48 °FPassing clouds.8 mph87%29.80 "HgN/A
8:30 PM48 °FPartly cloudy.5 mph87%29.80 "HgN/A
8:00 PM50 °FPartly cloudy.3 mph88%29.80 "HgN/A
7:30 PM50 °FLight rain. Partly cloudy.8 mph88%29.80 "HgN/A
7:00 PM50 °FPartly cloudy.5 mph76%29.80 "HgN/A
6:30 PM50 °FPartly cloudy.5 mph71%29.80 "HgN/A
6:00 PM50 °FPartly sunny.6 mph67%29.80 "HgN/A
5:30 PM50 °FPartly sunny.6 mph67%29.80 "HgN/A
5:00 PM50 °FPartly sunny.5 mph67%29.80 "HgN/A
4:30 PM50 °FPartly sunny.7 mph62%29.80 "HgN/A
4:00 PM50 °FPartly sunny.3 mph58%29.80 "HgN/A
3:30 PM50 °FPartly sunny.2 mph54%29.80 "HgN/A
3:00 PM50 °FPartly sunny.2 mph50%29.80 "HgN/A
2:30 PM50 °FPartly sunny.5 mph50%29.80 "HgN/A
2:00 PM50 °FPartly sunny.5 mph58%29.80 "HgN/A
1:30 PM50 °FPartly sunny.5 mph58%29.83 "HgN/A
1:00 PM48 °FBroken clouds.2 mph66%29.83 "HgN/A
12:30 PM48 °FPassing clouds.3 mph58%29.86 "HgN/A
12:00 PM46 °FSunny.2 mph62%29.86 "Hg10 mi
11:30 AM45 °FPassing clouds.3 mph71%29.86 "HgN/A
11:00 AM45 °FSunny.2 mph76%29.86 "Hg10 mi
10:30 AM43 °FSunny.No wind81%29.83 "Hg10 mi
10:00 AM43 °FSunny.2 mph81%29.83 "Hg10 mi
9:40 AM41 °FSunny.No wind87%29.83 "Hg10 mi
9:00 AM37 °FSunny.No wind93%29.83 "Hg10 mi
8:30 AM34 °FSunny.3 mph93%29.83 "Hg10 mi
8:00 AM32 °FSunny.3 mph93%29.83 "Hg10 mi
7:30 AM32 °FClear.7 mph93%29.83 "Hg10 mi
7:00 AM34 °FClear.5 mph93%29.83 "Hg10 mi
6:30 AM34 °FClear.5 mph93%29.83 "Hg10 mi
6:00 AM34 °FClear.3 mph93%29.83 "Hg10 mi
5:30 AM34 °FClear.3 mph93%29.83 "Hg10 mi
5:00 AM34 °FClear.1 mph87%29.80 "Hg10 mi
4:30 AM36 °FClear.3 mph87%29.83 "Hg10 mi
4:00 AM34 °FClear.5 mph93%29.83 "Hg10 mi
3:00 AM36 °FClear.1 mph87%29.83 "Hg10 mi
2:30 AM37 °FPassing clouds.5 mph93%29.83 "HgN/A
2:00 AM37 °FClear.1 mph81%29.80 "Hg10 mi
Weather by CustomWeather, © 2016

See weather overviewHow to use our weather pages